Regional Weather Roundup
Issued by NWS

Home | Current Version | Previous Version | Text Only | Print | Product List | Glossary On
Versions: 1 2 3 4 5 6 7 8 9 10 11 12 13 14 15 16 17 18 19 20 21 22 23 24 25 26 27 28 29 30 31 32 33 34 35 36 37 38 39 40 41 42 43 44 45 46 47 48 49 50
000
ASUS43 KTOP 271108
RWRKS

WEATHER ROUNDUP FOR KANSAS
NATIONAL WEATHER SERVICE GOODLAND KS
500 AM CST FRI FEB 27 2015

NOTE:  "FAIR" INDICATES FEW OR NO CLOUDS BELOW 12,000 FEET WITH NO
SIGNIFICANT WEATHER AND/OR OBSTRUCTIONS TO VISIBILITY.

KSZ001>006-013>018-027>032-041>047-271200-
NORTHWEST KANSAS

CITY           SKY/WX    TMP DP  RH WIND       PRES   REMARKS
GOODLAND       LGT SNOW  11   7  84 SE12      30.28S FOG     WCI  -3
HAYS           CLOUDY     9  -6  52 E9        30.48R
HILL CITY      CLOUDY     8  -1  66 E5        30.48R
RUSSELL        MOCLDY     7   2  80 E6        30.49F
$$

KSZ061>065-074>080-084>089-271200-
SOUTHWEST KANSAS

CITY           SKY/WX    TMP DP  RH WIND       PRES   REMARKS
DODGE CITY     LGT SNOW  13   4  67 E8        30.41R
ELKHART          N/A     11   5  77 E14         N/A  WCI  -5
GARDEN CITY    LGT SNOW  12   9  87 SE9       30.36S FOG
GREAT BEND     CLOUDY    10   0  61 E6        30.50R
LIBERAL        CLOUDY    12   7  79 E10       30.37S WCI  -1
PRATT          CLOUDY    12   3  67 E6        30.48S
$$

KSZ066>073-081>083-090>101-271200-
SOUTHEAST KANSAS

CITY           SKY/WX    TMP DP  RH WIND       PRES   REMARKS
CHANUTE        CLEAR      7  -1  70 N7        30.58S
COFFEYVILLE    CLEAR     10   0  63 N10       30.59R WCI  -4
HUTCHINSON     CLOUDY    10   0  63 NE7       30.52F
MEDICINE LODGE   N/A     14   2  58 E6        30.51R
NEWTON         MOCLDY     9  -2  61 E6        30.53F
PARSONS        CLEAR      9   0  67 NE7       30.59S
WICHITA INTL   CLOUDY    11  -1  58 NE12      30.53F WCI  -3
WICHITA JABRA  CLOUDY     9   0  67 NE9       30.53F
WICHITA MCCONL CLEAR     10   0  63 E9        30.53S
WINFIELD       CLOUDY    11   2  67 NE10      30.54F WCI  -3
$$

KSZ007>012-019>026-033>040-048>060-102>105-271200-
NORTHEAST KANSAS

CITY           SKY/WX    TMP DP  RH WIND       PRES   REMARKS
CONCORDIA      PTCLDY     5   1  83 W5        30.55R
EMPORIA        CLEAR      6   1  80 CALM      30.57R
LAWRENCE       CLEAR      1  -4  79 CALM      30.61S
MANHATTAN      PTCLDY     6   1  80 CALM      30.59R
MARYSVILLE     CLEAR      0  -4  85 CALM      30.56S
OLATHE IND     CLEAR      2  -3  80 CALM      30.58S
OLATHE EXE     CLEAR      4  -4  69 N6        30.56S
SALINA         PTCLDY     9   0  67 CALM      30.58R
TOPEKA BILLARD CLEAR      5  -2  72 NE6       30.60F
TOPEKA FORBES  CLEAR      5  -1  76 NE3       30.57F
$$


USA.gov is the U.S. government's official web portal to all federal, state and local government web resources and services.